Volver al catálogo

STARLINK-3718

ActivoComunicacionesVLEO
NORAD 52132·PAYLOAD·🇺🇸 United States

Lanzado Mar 19, 2022 desde Cape Canaveral Space Force Station

Loading…

Próximos Pases (próximas 24 horas)

TLE

ActualizadoSource: CelesTrak SupGP

Época: Sep 15, 2026, 02:35 UTC

1 52132C 22029AW  26258.10812500 -.00005722  00000+0 -16888-3 0  2587
2 52132  53.1588 292.6955 0001184  99.2496  75.2110 15.34424716    10

Sigue STARLINK-3718 en tiempo real con AllMySat

Download on the App Store